Weather History for OIAW - October, 2013

Change the Weather History Date:

Saturday, October 12, 2013

  Actual Average Record
Temperature  
Mean Temperature 75 °F -  
Max Temperature 93 °F - - ()
Min Temperature 57 °F - - ()
Cooling Degree Days 10    
Growing Degree Days 25 (Base 50)    
Moisture  
Dew Point 46 °F    
Average Humidity 40    
Maximum Humidity 63    
Minimum Humidity 10    
Precipitation  
Precipitation 0.00 in - - ()
Sea Level Pressure  
Sea Level Pressure 29.78 in    
Wind  
Wind Speed 1 mph ()    
Max Wind Speed 5 mph    
Max Gust Speed -    
Visibility 4.8 miles    
Events      
T = Trace of Precipitation, MM = Missing Value Source: Averaged Metar Reports

Daily Weather History Graph

Daily Weather History Graph

Search for Another Location

Airport or City:

Trip Planner

Search our weather history database for the weather conditions in past years. The results will help you decide how hot, cold, wet, or windy it might be!

Date:

Astronomy

Oct. 12, 2013 Rise Set
Actual Time 6:16 AM IRST 5:47 PM IRST
Civil Twilight 5:51 AM IRST 6:11 PM IRST
Nautical Twilight 5:23 AM IRST 6:39 PM IRST
Astronomical Twilight 4:55 AM IRST 7:07 PM IRST
Moon 1:16 PM IRST (10/12) 12:22 AM IRST (10/13)
Length of Visible Light 12h 19m
Length of Day
11h 30m
First Quarter, 55% of the Moon is Illuminated
Oct 12
First Quarter
Oct 19
Full
Oct 27
Last Quarter
Nov 3
New
Nov 10
First Quarter

Hourly Weather History & Observations

Time (IRST) Temp. Heat Index Dew Point Humidity Pressure Visibility Wind Dir Wind Speed Gust Speed Precip Events Conditions
12:30 AM 64.4 °F - 48.2 °F 56% 29.83 in - Calm Calm - N/A   Clear
1:30 AM 62.6 °F - 48.2 °F 59% 29.83 in - Calm Calm - N/A   Clear
2:30 AM 59.0 °F - 46.4 °F 63% 29.80 in - Calm Calm - N/A   Clear
3:30 AM 59 °F - 47 °F 55% 29.81 in 6 mi Calm Calm - -  
3:30 AM 59.0 °F - 46.4 °F 63% 29.80 in - Calm Calm - N/A   Clear
4:30 AM 59.0 °F - 46.4 °F 63% 29.80 in - Calm Calm - N/A   Clear
5:30 AM 59.0 °F - 46.4 °F 63% 29.80 in - Calm Calm - N/A   Clear
6:30 AM 57.2 °F - 44.6 °F 63% 29.80 in 4.3 mi Calm Calm - N/A   Clear
7:30 AM 62.6 °F - 44.6 °F 52% 29.83 in 4.3 mi Calm Calm - N/A   Clear
8:30 AM 69.8 °F - 42.8 °F 38% 29.83 in 4.3 mi Calm Calm - N/A   Clear
9:30 AM 79 °F - 45 °F 20% 29.85 in 4 mi Calm Calm - -   Haze
9:30 AM 78.8 °F - 44.6 °F 30% 2.98 in 4.3 mi Calm Calm - N/A   Clear
10:30 AM 84.2 °F - 42.8 °F 23% 29.83 in 4.3 mi South 2.3 mph - N/A   Clear
11:30 AM 86.0 °F - 42.8 °F 22% 29.80 in 5.0 mi WNW 4.6 mph - N/A   Clear
12:30 PM 89.6 °F - 42.8 °F 20% 29.80 in - NW 4.6 mph - N/A   Clear
1:30 PM 91.4 °F - 42.8 °F 18% 29.77 in - North 4.6 mph - N/A   Clear
2:30 PM 91.4 °F - 42.8 °F 18% 29.74 in - NW 4.6 mph - N/A   Clear
3:30 PM 92 °F - 42 °F 10% 29.75 in 6 mi North 4.5 mph - -  
3:30 PM 93.2 °F - 41.0 °F 16% 29.74 in - North 4.6 mph - N/A   Clear
4:30 PM 91.4 °F - 42.8 °F 18% 29.74 in - NNW 4.6 mph - N/A   Clear
5:30 PM 87.8 °F 85.7 °F 53.6 °F 31% 29.74 in - Calm Calm - N/A   Clear
6:30 PM 80.6 °F - 51.8 °F 37% 29.74 in - Calm Calm - N/A   Clear
7:30 PM 75.2 °F - 50.0 °F 41% 29.74 in - Calm Calm - N/A   Clear
8:00 PM 75.2 °F - 53.6 °F 47% 29.74 in - Calm Calm - N/A   Clear
8:30 PM 73.4 °F - 53.6 °F 50% 29.74 in - Calm Calm - N/A   Clear
9:30 PM 71 °F - 48 °F 33% 29.76 in 6 mi Calm Calm - -  
9:30 PM 69.8 °F - 48.2 °F 46% 29.74 in - Calm Calm - N/A   Clear
10:30 PM 68.0 °F - 46.4 °F 46% 29.74 in - Calm Calm - N/A   Clear
11:00 PM 68.0 °F - 46.4 °F 46% 29.74 in - Calm Calm - N/A   Clear
11:30 PM 66.2 °F - 46.4 °F 49% 29.74 in - Calm Calm - N/A   Clear